Showing default

COSMOS 1995, 19786

Orbit data source: Space-Track

COSMOS 1995, 19786 is a payload satellite owned by UNKS (CIS) in LEO that was launched on Fri, 10 Feb 1989 UTC via a TSIKLON-3 launch vehicle from the Plesetsk Missile And Space Complex (PKMTR). Payload-class satellites include a variety of spacecraft equipped with specific instruments for various scientific and technological missions. These include communications satellites like Starlink; space stations such as the ISS; scientific satellites like the Hubble; Earth observation satellites from companies like Planet Labs, Umbra, and HawkEye 360; GPS; miniature CubeSats for education and research; and military/defense satellites.

Loading next visibility...
Identifier
19786, 1989-009B
Orbit
LEO
Country
Flag of CISCIS
Related business
Manufacturer
NPO PM
Mission
Defense Communications
Bus & Motor
STRELA-3, Unknown motor
Mass
225 kg wet, 225 kg dry
Launch date (UTC)
1989-02-10 (37 years ago)
Launch vehicle
TSIKLON-3
Launch site
Plesetsk Missile And Space Complex (PKMTR)
Object type
Payload
Rocket body
Debris
Shape & HBR
Cyl, 0.8 m
Radar Cross Section
1.257 m², Large (>1 m²)

Expand to show TLE details & history
Last TLE update: 19 hours ago

TLE from 19 hours ago
0 COSMOS 1995
1 19786U 89009B   25301.64275392  .00000022  00000-0  66318-4 0  9998
2 19786  82.6251 175.6047 0002704 299.5640  88.5597 12.62226268691134
Epoch: 2025-10-28T15:25Z
TLE epoch observation values (Epoch: 2025-10-28T15:25:33.938Z)
Latitude
27.94005°
Longitude
-89.09723°
Altitude
1,417.012 km
Speed
7.155 km/s
True Right ascension
11h 58m 05s
True Declination
27° 48' 36"
Sunlit
Object was in daylight at epoch
Visualization orbit readout
Latitude
Unknown
Longitude
Unknown
Altitude
Unknown
Speed
Unknown
Apparent Right ascension
Unknown
Apparent Declination
Unknown
Sunlit
N/A
Visualization observer readout
Local Sidereal Time
06:01:54
Azimuth
Unknown
Elevation
Unknown
Doppler factor
Unknown
Orbital elements
Apogee altitude
1,413.194 km
Perigee altitude
1,408.982 km
Semi-major axis
7,789.225 km
Eccentricity
0.00027
Inclination
82.6251°
RAAN
175.6047°
Arg. of periapsis
299.564°
True anomaly
88.59068°
Mean anomaly
88.5597°
Eccentric anomaly
88.57519°
Mean motion
3.1572 °/min
Orbital period
114.03 mins
BSTAR
0.000066318
Loading maneuver chart data...
Computing Atmospheric mass density...
Loading historical data...
Loading historical data...
Loading historical data...
Loading historical data...
Loading historical data...
Loading historical data...
Loading historical data...

Documentation

Showing up to 5 results
|